�v������,���r���O(���x),�����t���O,���r���O(���x),�����t���O,��1(���x),�����t���O,��2���x),�����t���O,�O�C���x,�����t���O,�������x,�����t���O,�C�ۑ�(���x),�����t���O,�C�ۑ�(���x),�����t���O
11/1/2003 0:00,19.7,0,57.6,0,18.4,0,17.7,0,12.8,0,0,2,12.5,0,66.8,0
11/1/2003 0:15,19.6,0,57.4,0,18.4,0,17.7,0,12.6,0,0,2,12.3,0,67.3,0
11/1/2003 0:30,19.5,0,57.4,0,18.3,0,17.6,0,12.5,0,0,2,12.1,0,67.8,0
11/1/2003 0:45,19.4,0,57.5,0,18.3,0,17.6,0,12.3,0,0,2,12,0,68.3,0
11/1/2003 1:00,19.3,0,57.5,0,18.3,0,17.5,0,12.3,0,0,2,11.8,0,68.8,0
11/1/2003 1:15,19.2,0,57.5,0,18.3,0,17.5,0,12.2,0,0,2,11.8,0,68.6,0
11/1/2003 1:30,19.1,0,57.5,0,18.3,0,17.4,0,12.2,0,0,2,11.8,0,68.3,0
11/1/2003 1:45,19,0,57.5,0,18.2,0,17.4,0,12,0,0,2,11.9,0,68.1,0
11/1/2003 2:00,18.9,0,57.5,0,18.1,0,17.3,0,11.9,0,0,2,11.9,0,67.8,0
11/1/2003 2:15,18.8,0,57.6,0,18.1,0,17.3,0,11.9,0,0,2,11.9,0,67.8,0
11/1/2003 2:30,18.7,0,57.6,0,18,0,17.2,0,11.7,0,0,2,11.9,0,67.8,0
11/1/2003 2:45,18.6,0,57.6,0,18,0,17.2,0,11.6,0,0,2,11.9,0,67.8,0
11/1/2003 3:00,18.5,0,57.6,0,17.9,0,17.1,0,11.4,0,0,2,11.9,0,67.8,0
11/1/2003 3:15,18.4,0,57.6,0,17.9,0,17.1,0,11.4,0,0,2,11.9,0,67.8,0
11/1/2003 3:30,18.3,0,57.7,0,17.9,0,17,0,11.3,0,0,2,11.9,0,67.8,0
11/1/2003 3:45,18.3,0,57.8,0,17.8,0,17,0,11.2,0,0,2,11.9,0,67.8,0
11/1/2003 4:00,18.2,0,57.8,0,17.7,0,16.9,0,11.1,0,0,2,11.9,0,67.8,0
11/1/2003 4:15,18.1,0,57.8,0,17.7,0,16.9,0,11,0,0,2,11.9,0,68.1,0
11/1/2003 4:30,18,0,57.9,0,17.7,0,16.8,0,11,0,0,2,11.9,0,68.3,0
11/1/2003 4:45,18,0,58,0,17.6,0,16.8,0,11,0,0,2,11.9,0,68.6,0
11/1/2003 5:00,17.9,0,58,0,17.6,0,16.7,0,11,0,0,2,11.9,0,68.8,0
11/1/2003 5:15,17.8,0,58,0,17.5,0,16.7,0,10.9,0,0,2,11.8,0,69.1,0
11/1/2003 5:30,17.7,0,58.1,0,17.5,0,16.6,0,10.8,0,0,2,11.7,0,69.3,0
11/1/2003 5:45,17.7,0,58.1,0,17.4,0,16.6,0,10.8,0,0,2,11.6,0,69.6,0
11/1/2003 6:00,17.6,0,58.3,0,17.4,0,16.5,0,10.8,0,0,2,11.5,0,69.8,0
11/1/2003 6:15,17.6,0,58.5,0,17.3,0,16.5,0,10.7,0,0,2,11.5,0,70.3,0
11/1/2003 6:30,17.3,0,58.7,0,17.4,0,16.5,0,10.8,0,0,2,11.4,0,70.8,0
11/1/2003 6:45,17.1,0,60.1,0,17.3,0,16.4,0,10.8,0,0,2,11.4,0,71.3,0
11/1/2003 7:00,17.6,0,58.5,0,17.2,0,16.4,0,10.8,0,0,2,11.4,0,71.8,0
11/1/2003 7:15,17.8,0,59,0,17.2,0,16.3,0,10.9,0,0,2,11.8,0,70.6,0
11/1/2003 7:30,17.9,0,59.6,0,17.1,0,16.3,0,11,0,0,2,12.2,0,69.3,0
11/1/2003 7:45,17.9,0,61.4,0,16.8,0,16.3,0,11.2,0,0,2,12.7,0,68.1,0
11/1/2003 8:00,17.8,0,60.6,0,16.6,0,16.2,0,11.4,0,0,2,13.1,0,66.8,0
11/1/2003 8:15,17.8,0,61.4,0,16.6,0,16.3,0,11.7,0,0,2,13.8,0,65.1,0
11/1/2003 8:30,17.8,0,60.7,0,16.7,0,16.3,0,11.9,0,0,2,14.5,0,63.3,0
11/1/2003 8:45,17.9,0,61.2,0,17.1,0,16.5,0,12.4,0,0,2,15.2,0,61.6,0
11/1/2003 9:00,18,0,61.1,0,17.3,0,16.6,0,12.7,0,0,2,15.9,0,59.8,0
11/1/2003 9:15,17.9,0,60.3,0,17.5,0,16.7,0,13,0,0,2,16.4,0,58.5,0
11/1/2003 9:30,18,0,61.7,0,18,0,16.8,0,13.7,0,0,2,16.9,0,57.3,0
11/1/2003 9:45,18.1,0,61.1,0,18.5,0,17,0,14.3,0,0,2,17.4,0,56,0
11/1/2003 10:00,18.3,0,60.8,0,18.8,0,17.2,0,14.9,0,0,2,17.9,0,54.8,0
11/1/2003 10:15,18.6,0,60.4,0,19,0,17.5,0,15.7,0,0,2,17.9,0,54.3,0
11/1/2003 10:30,18.8,0,59.6,0,19.2,0,17.8,0,16.3,0,0,2,18,0,53.8,0
11/1/2003 10:45,19.1,0,58.9,0,19.5,0,18.3,0,17.1,0,0,2,18,0,53.3,0
11/1/2003 11:00,19.2,0,57,0,19.6,0,18.6,0,17.7,0,0,2,18.1,0,52.8,0
11/1/2003 11:15,19.4,0,56.6,0,19.6,0,18.7,0,18,0,0,2,18.5,0,52.8,0
11/1/2003 11:30,19.7,0,55.8,0,19.7,0,18.9,0,18.4,0,0,2,18.9,0,52.8,0
11/1/2003 11:45,19.7,0,57,0,19.8,0,19.2,0,18.7,0,0,2,19.4,0,52.8,0
11/1/2003 12:00,20.2,0,57.6,0,19.9,0,19.5,0,19,0,0,2,19.8,0,52.8,0
11/1/2003 12:15,20.4,0,55.7,0,20.1,0,19.8,0,19.3,0,0,2,19.9,0,52.3,0
11/1/2003 12:30,20.7,0,55.5,0,20.3,0,20.1,0,19.6,0,0,2,20,0,51.8,0
11/1/2003 12:45,20.9,0,54.7,0,20.5,0,20.4,0,19.8,0,0,2,20.2,0,51.3,0
11/1/2003 13:00,20.9,0,54.9,0,20.6,0,20.6,0,20.2,0,0,2,20.3,0,50.8,0
11/1/2003 13:15,21,0,54.7,0,20.7,0,20.7,0,20.5,0,0,2,20.4,0,51,0
11/1/2003 13:30,21,0,55.5,0,20.7,0,20.7,0,20.7,0,0,2,20.4,0,51.3,0
11/1/2003 13:45,21,0,54.8,0,20.8,0,20.7,0,20.9,0,0,2,20.5,0,51.5,0
11/1/2003 14:00,21.1,0,55,0,20.8,0,20.8,0,21,0,0,2,20.6,0,51.8,0
11/1/2003 14:15,21.1,0,54.8,0,20.8,0,20.7,0,21.1,0,0,2,20.5,0,52.5,0
11/1/2003 14:30,21.1,0,55.3,0,20.8,0,20.7,0,21.1,0,0,2,20.5,0,53.3,0
11/1/2003 14:45,21.1,0,55.4,0,20.7,0,20.6,0,21.1,0,0,2,20.4,0,54,0
11/1/2003 15:00,21.1,0,55.6,0,20.7,0,20.5,0,21.1,0,0,2,20.4,0,54.8,0
11/1/2003 15:15,21,0,55.9,0,20.6,0,20.4,0,21.2,0,0,2,20.2,0,55.8,0
11/1/2003 15:30,21,0,55.8,0,20.5,0,20.3,0,21.1,0,0,2,19.9,0,56.8,0
11/1/2003 15:45,21,0,56.4,0,20.4,0,20.2,0,20.9,0,0,2,19.7,0,57.8,0
11/1/2003 16:00,21.1,0,56.1,0,20.4,0,20.2,0,20.7,0,0,2,19.5,0,58.8,0
11/1/2003 16:15,21.2,0,56.5,0,20.4,0,20.1,0,20.5,0,0,2,19.2,0,60,0
11/1/2003 16:30,21.1,0,56.3,0,20.2,0,20,0,20.2,0,0,2,19,0,61.3,0
11/1/2003 16:45,21.1,0,56.9,0,20.1,0,20,0,19.9,0,0,2,18.7,0,62.5,0
11/1/2003 17:00,21.1,0,58.4,0,19.9,0,19.9,0,19.6,0,0,2,18.5,0,63.8,0
11/1/2003 17:15,21.1,0,58.8,0,19.9,0,19.8,0,19.4,0,0,2,18.2,0,65.3,0
11/1/2003 17:30,21.1,0,58.6,0,19.9,0,19.8,0,19.2,0,0,2,17.8,0,66.8,0
11/1/2003 17:45,21.1,0,59.2,0,19.8,0,19.7,0,18.9,0,0,2,17.5,0,68.3,0
11/1/2003 18:00,21.2,0,60.8,0,19.8,0,19.7,0,18.6,0,0,2,17.2,0,69.8,0
11/1/2003 18:15,21.5,0,61.7,0,19.7,0,19.6,0,18.3,0,0,2,16.8,0,71.6,0
11/1/2003 18:30,21.4,0,60.1,0,19.7,0,19.6,0,18,0,0,2,16.4,0,73.3,0
11/1/2003 18:45,21.7,0,61.4,0,19.6,0,19.5,0,17.8,0,0,2,16.1,0,75.1,0
11/1/2003 19:00,21.8,0,60.7,0,19.6,0,19.4,0,17.6,0,0,2,15.7,0,76.8,0
11/1/2003 19:15,21.8,0,60.7,0,19.5,0,19.4,0,17.4,0,0,2,15.5,0,77.8,0
11/1/2003 19:30,21.8,0,62.1,0,19.5,0,19.3,0,17.2,0,0,2,15.2,0,78.8,0
11/1/2003 19:45,21.8,0,63.6,0,19.4,0,19.3,0,17,0,0,2,15,0,79.8,0
11/1/2003 20:00,21.8,0,62.7,0,19.4,0,19.2,0,16.7,0,0,2,14.8,0,80.8,0
11/1/2003 20:15,21.7,0,62.1,0,19.4,0,19.2,0,16.5,0,0,2,14.6,0,81.1,0
11/1/2003 20:30,21.6,0,62.5,0,19.3,0,19.1,0,16.2,0,0,2,14.4,0,81.3,0
11/1/2003 20:45,21.5,0,62.7,0,19.3,0,19.1,0,16,0,0,2,14.3,0,81.6,0
11/1/2003 21:00,21.4,0,62.9,0,19.2,0,19,0,15.7,0,0,2,14.1,0,81.8,0
11/1/2003 21:15,21.4,0,63,0,19.2,0,19,0,15.6,0,0,2,14,0,81.6,0
11/1/2003 21:30,21.4,0,62.2,0,19.1,0,18.9,0,15.3,0,0,2,14,0,81.3,0
11/1/2003 21:45,21.3,0,62.8,0,19.1,0,18.9,0,15.1,0,0,2,13.9,0,81.1,0
11/1/2003 22:00,21.3,0,62.7,0,19.1,0,18.8,0,14.9,0,0,2,13.9,0,80.8,0
11/1/2003 22:15,21.3,0,62.7,0,19.1,0,18.8,0,14.7,0,0,2,13.9,0,80.8,0
11/1/2003 22:30,21.2,0,62.4,0,19.1,0,18.8,0,14.6,0,0,2,13.8,0,80.8,0
11/1/2003 22:45,21.1,0,62.3,0,19.2,0,18.8,0,14.3,0,0,2,13.8,0,80.8,0
11/1/2003 23:00,20.9,0,61.9,0,19.2,0,18.8,0,14.2,0,0,2,13.8,0,80.8,0
11/1/2003 23:15,20.8,0,61.7,0,19.3,0,18.7,0,14.2,0,0,2,13.8,0,80.3,0
11/1/2003 23:30,20.6,0,61.6,0,19.2,0,18.7,0,14.1,0,0,2,13.8,0,79.8,0
11/1/2003 23:45,20.5,0,61.6,0,19.2,0,18.6,0,14,0,0,2,13.9,0,79.3,0
11/2/2003 0:00,20.3,0,61.5,0,19.1,0,18.6,0,13.9,0,0,2,13.9,0,78.8,0
11/2/2003 0:15,20.2,0,61.5,0,19,0,18.5,0,13.8,0,0,2,13.9,0,78.6,0
11/2/2003 0:30,20.1,0,61.5,0,19,0,18.4,0,13.7,0,0,2,13.9,0,78.3,0
11/2/2003 0:45,19.9,0,61.4,0,18.9,0,18.4,0,13.6,0,0,2,14,0,78.1,0
11/2/2003 1:00,19.8,0,61.5,0,18.9,0,18.3,0,13.5,0,0,2,14,0,77.8,0
11/2/2003 1:15,19.7,0,61.4,0,18.9,0,18.3,0,13.5,0,0,2,13.9,0,77.6,0
11/2/2003 1:30,19.7,0,61.4,0,18.9,0,18.2,0,13.5,0,0,2,13.9,0,77.3,0
11/2/2003 1:45,19.6,0,61.4,0,18.8,0,18.2,0,13.4,0,0,2,13.8,0,77.1,0
11/2/2003 2:00,19.5,0,61.4,0,18.8,0,18.1,0,13.3,0,0,2,13.8,0,76.8,0
11/2/2003 2:15,19.4,0,61.3,0,18.8,0,18.1,0,13.2,0,0,2,13.6,0,77.1,0
11/2/2003 2:30,19.3,0,61.3,0,18.7,0,18.1,0,13.1,0,0,2,13.5,0,77.3,0
11/2/2003 2:45,19.2,0,61.4,0,18.7,0,18,0,13,0,0,2,13.3,0,77.6,0
11/2/2003 3:00,19.2,0,61.4,0,18.6,0,18,0,13,0,0,2,13.2,0,77.8,0
11/2/2003 3:15,19.1,0,61.4,0,18.6,0,17.9,0,12.8,0,0,2,13.2,0,77.8,0
11/2/2003 3:30,19,0,61.4,0,18.6,0,17.9,0,12.7,0,0,2,13.2,0,77.8,0
11/2/2003 3:45,18.9,0,61.4,0,18.5,0,17.8,0,12.6,0,0,2,13.3,0,77.8,0
11/2/2003 4:00,18.9,0,61.4,0,18.5,0,17.8,0,12.6,0,0,2,13.3,0,77.8,0
11/2/2003 4:15,18.8,0,61.4,0,18.4,0,17.8,0,12.5,0,0,2,13.2,0,78.1,0
11/2/2003 4:30,18.7,0,61.4,0,18.4,0,17.7,0,12.4,0,0,2,13,0,78.3,0
11/2/2003 4:45,18.7,0,61.5,0,18.3,0,17.7,0,12.3,0,0,2,12.9,0,78.6,0
11/2/2003 5:00,18.6,0,61.4,0,18.3,0,17.6,0,12.2,0,0,2,12.8,0,78.8,0
11/2/2003 5:15,18.5,0,61.5,0,18.2,0,17.6,0,12,0,0,2,12.7,0,78.8,0
11/2/2003 5:30,18.5,0,61.5,0,18.2,0,17.5,0,11.8,0,0,2,12.7,0,78.8,0
11/2/2003 5:45,18.4,0,61.5,0,18.2,0,17.5,0,11.8,0,0,2,12.6,0,78.8,0
11/2/2003 6:00,18.3,0,61.6,0,18.1,0,17.4,0,11.7,0,0,2,12.6,0,78.8,0
11/2/2003 6:15,18.3,0,61.8,0,18.1,0,17.4,0,11.6,0,0,2,12.8,0,77.8,0
11/2/2003 6:30,18.1,0,62.6,0,18.1,0,17.3,0,11.6,0,0,2,13,0,76.8,0
11/2/2003 6:45,18.1,0,63,0,18,0,17.2,0,11.7,0,0,2,13.3,0,75.8,0
11/2/2003 7:00,18.4,0,61.6,0,18,0,17.2,0,11.8,0,0,2,13.5,0,74.8,0
11/2/2003 7:15,18.5,0,62.9,0,18,0,17.1,0,11.9,0,0,2,13.8,0,73.8,0
11/2/2003 7:30,18.6,0,63.6,0,18.1,0,17.1,0,12.3,0,0,2,14.1,0,72.8,0
11/2/2003 7:45,18.6,0,62.8,0,18,0,17.1,0,12.9,0,0,2,14.4,0,71.8,0
11/2/2003 8:00,18.6,0,62.9,0,18,0,17.2,0,13.3,0,0,2,14.7,0,70.8,0
11/2/2003 8:15,18.8,0,63.3,0,18.2,0,17.3,0,13.7,0,0,2,15.4,0,68.6,0
11/2/2003 8:30,19.1,0,63.7,0,18.6,0,17.4,0,14.2,0,0,2,16.2,0,66.3,0
11/2/2003 8:45,19.3,0,62.7,0,19,0,17.6,0,14.7,0,0,2,16.9,0,64.1,0
11/2/2003 9:00,19.3,0,64.4,0,19.4,0,17.8,0,15.2,0,0,2,17.7,0,61.8,0
11/2/2003 9:15,19.6,0,63.5,0,19.9,0,18,0,15.9,0,0,2,18.4,0,59.3,0
11/2/2003 9:30,19.7,0,62.9,0,20.3,0,18.2,0,16.6,0,0,2,19,0,56.8,0
11/2/2003 9:45,19.9,0,62.1,0,20.7,0,18.5,0,17.2,0,0,2,19.7,0,54.3,0
11/2/2003 10:00,20.1,0,61.2,0,21,0,18.8,0,17.8,0,0,2,20.4,0,51.8,0
11/2/2003 10:15,20.6,0,59.5,0,21.3,0,19.1,0,18.4,0,0,2,20.9,0,50.5,0
11/2/2003 10:30,20.9,0,59.3,0,21.6,0,19.4,0,19.2,0,0,2,21.3,0,49.3,0
11/2/2003 10:45,21.2,0,58.1,0,21.8,0,19.7,0,19.6,0,0,2,21.8,0,48,0
11/2/2003 11:00,21.4,0,58.1,0,22,0,20,0,19.9,0,0,2,22.3,0,46.8,0
11/2/2003 11:15,21.6,0,57.7,0,22.1,0,20.4,0,20.4,0,0,2,22.5,0,46.8,0
11/2/2003 11:30,21.9,0,56.9,0,22.3,0,20.8,0,20.7,0,0,2,22.7,0,46.8,0
11/2/2003 11:45,22.4,0,55,0,22.5,0,21.2,0,21.2,0,0,2,23,0,46.8,0
11/2/2003 12:00,22.9,0,56.2,0,22.7,0,21.5,0,21.7,0,0,2,23.2,0,46.8,0
11/2/2003 12:15,23,0,54.2,0,22.9,0,21.7,0,22.1,0,0,2,23.3,0,46.3,0
11/2/2003 12:30,23.3,0,53,0,23,0,22,0,22.5,0,0,2,23.4,0,45.8,0
11/2/2003 12:45,23.5,0,51.3,0,23.1,0,22.1,0,22.9,0,0,2,23.6,0,45.3,0
11/2/2003 13:00,23.4,0,52,0,23.1,0,22.3,0,23.1,0,0,2,23.7,0,44.8,0
11/2/2003 13:15,23.3,0,52.4,0,23.2,0,22.5,0,23.4,0,0,2,23.7,0,45,0
11/2/2003 13:30,23.5,0,51.6,0,23.2,0,22.6,0,23.4,0,0,2,23.7,0,45.3,0
11/2/2003 13:45,23.5,0,51.6,0,23.3,0,22.6,0,23.6,0,0,2,23.7,0,45.5,0
11/2/2003 14:00,23.3,0,54.3,0,23.2,0,22.6,0,23.4,0,0,2,23.7,0,45.8,0
11/2/2003 14:15,23.2,0,53.3,0,23.1,0,22.6,0,23.5,0,0,2,23.6,0,46.5,0
11/2/2003 14:30,23.1,0,54.5,0,23,0,22.7,0,23.6,0,0,2,23.5,0,47.3,0
11/2/2003 14:45,23.2,0,54.1,0,23,0,22.7,0,23.6,0,0,2,23.5,0,48,0
11/2/2003 15:00,23.1,0,54.8,0,22.9,0,22.7,0,23.5,0,0,2,23.4,0,48.8,0
11/2/2003 15:15,23.1,0,55.3,0,22.8,0,22.6,0,23.6,0,0,2,23.1,0,49.8,0
11/2/2003 15:30,23.3,0,54.9,0,22.8,0,22.6,0,23.5,0,0,2,22.8,0,50.8,0
11/2/2003 15:45,23.4,0,55,0,22.7,0,22.5,0,23.3,0,0,2,22.6,0,51.8,0
11/2/2003 16:00,23.3,0,55.6,0,22.7,0,22.4,0,23.1,0,0,2,22.3,0,52.8,0
11/2/2003 16:15,23.3,0,55.8,0,22.6,0,22.3,0,22.9,0,0,2,21.9,0,54.5,0
11/2/2003 16:30,23.3,0,56.4,0,22.5,0,22.2,0,22.6,0,0,2,21.6,0,56.3,0
11/2/2003 16:45,23.3,0,56.2,0,22.5,0,22.1,0,22.3,0,0,2,21.2,0,58,0
11/2/2003 17:00,23.3,0,57.6,0,22.4,0,22,0,22,0,0,2,20.9,0,59.8,0
11/2/2003 17:15,23.5,0,58.4,0,22.4,0,22,0,21.7,0,0,2,20.5,0,61.6,0
11/2/2003 17:30,23.5,0,58.4,0,22.3,0,21.9,0,21.3,0,0,2,20.1,0,63.3,0
11/2/2003 17:45,23.5,0,58.4,0,22.3,0,21.8,0,20.8,0,0,2,19.7,0,65.1,0
11/2/2003 18:00,23.4,0,58.1,0,22.2,0,21.8,0,20.5,0,0,2,19.3,0,66.8,0
11/2/2003 18:15,23.4,0,58.5,0,22.1,0,21.7,0,20.1,0,0,2,19,0,68.3,0
11/2/2003 18:30,23.6,0,61.7,0,22,0,21.6,0,20,0,0,2,18.6,0,69.8,0
11/2/2003 18:45,23.7,0,60.9,0,21.9,0,21.6,0,19.8,0,0,2,18.3,0,71.3,0
11/2/2003 19:00,23.7,0,60.5,0,21.8,0,21.5,0,19.6,0,0,2,18,0,72.8,0
11/2/2003 19:15,23.7,0,60.8,0,21.7,0,21.4,0,19.4,0,0,2,17.7,0,73.6,0
11/2/2003 19:30,23.7,0,61.4,0,21.6,0,21.4,0,19.2,0,0,2,17.4,0,74.3,0
11/2/2003 19:45,23.6,0,61.7,0,21.5,0,21.3,0,18.9,0,0,2,17.1,0,75.1,0
11/2/2003 20:00,23.6,0,61.7,0,21.5,0,21.2,0,18.7,0,0,2,16.8,0,75.8,0
11/2/2003 20:15,23.6,0,61.6,0,21.4,0,21.1,0,18.5,0,0,2,16.6,0,76.1,0
11/2/2003 20:30,23.5,0,61.2,0,21.3,0,21.1,0,18.3,0,0,2,16.5,0,76.3,0
11/2/2003 20:45,23.4,0,61,0,21.2,0,21,0,18.1,0,0,2,16.3,0,76.6,0
11/2/2003 21:00,23.3,0,61.2,0,21.2,0,20.9,0,17.8,0,0,2,16.2,0,76.8,0
11/2/2003 21:15,23.3,0,61.1,0,21.2,0,20.9,0,17.5,0,0,2,16.1,0,77.1,0
11/2/2003 21:30,23.2,0,61.2,0,21.1,0,20.8,0,17.3,0,0,2,16,0,77.3,0
11/2/2003 21:45,23.1,0,61.7,0,21.1,0,20.8,0,16.9,0,0,2,15.9,0,77.6,0
11/2/2003 22:00,23.1,0,61.4,0,21,0,20.7,0,16.7,0,0,2,15.8,0,77.8,0
11/2/2003 22:15,23,0,61.4,0,21,0,20.7,0,16.6,0,0,2,15.7,0,78.1,0
11/2/2003 22:30,22.9,0,61.6,0,21.1,0,20.7,0,16.4,0,0,2,15.5,0,78.3,0
11/2/2003 22:45,22.8,0,61.3,0,21.1,0,20.6,0,16.2,0,0,2,15.4,0,78.6,0
11/2/2003 23:00,22.7,0,61.2,0,21.1,0,20.6,0,16.2,0,0,2,15.3,0,78.8,0
11/2/2003 23:15,22.6,0,61.2,0,21,0,20.5,0,16.2,0,0,2,15.1,0,79.3,0
11/2/2003 23:30,22.4,0,61,0,21,0,20.4,0,16,0,0,2,15,0,79.8,0
11/2/2003 23:45,22.3,0,60.9,0,20.9,0,20.4,0,16.1,0,0,2,14.8,0,80.3,0
11/3/2003 0:00,22.2,0,60.8,0,20.9,0,20.3,0,16.1,0,0,2,14.7,0,80.8,0
11/3/2003 0:15,22.1,0,60.8,0,20.9,0,20.2,0,16,0,0,2,14.6,0,80.8,0
11/3/2003 0:30,22,0,60.8,0,20.9,0,20.2,0,16,0,0,2,14.6,0,80.8,0
11/3/2003 0:45,21.9,0,60.8,0,20.9,0,20.1,0,15.9,0,0,2,14.5,0,80.8,0
11/3/2003 1:00,21.8,0,60.7,0,20.8,0,20.1,0,15.8,0,0,2,14.5,0,80.8,0
11/3/2003 1:15,21.7,0,60.8,0,20.8,0,20,0,15.8,0,0,2,14.4,0,80.6,0
11/3/2003 1:30,21.6,0,60.8,0,20.7,0,20,0,15.7,0,0,2,14.3,0,80.3,0
11/3/2003 1:45,21.5,0,60.8,0,20.7,0,19.9,0,15.5,0,0,2,14.3,0,80.1,0
11/3/2003 2:00,21.4,0,60.6,0,20.6,0,19.9,0,15.4,0,0,2,14.2,0,79.8,0
11/3/2003 2:15,21.3,0,60.7,0,20.6,0,19.8,0,15.2,0,0,2,14.2,0,79.8,0
11/3/2003 2:30,21.2,0,60.8,0,20.5,0,19.8,0,15.1,0,0,2,14.1,0,79.8,0
11/3/2003 2:45,21.1,0,60.9,0,20.4,0,19.8,0,14.9,0,0,2,14.1,0,79.8,0
11/3/2003 3:00,21,0,60.9,0,20.3,0,19.7,0,14.8,0,0,2,14.1,0,79.8,0
11/3/2003 3:15,20.9,0,60.8,0,20.3,0,19.7,0,14.6,0,0,2,14,0,79.8,0
11/3/2003 3:30,20.8,0,60.9,0,20.2,0,19.6,0,14.4,0,0,2,13.9,0,79.8,0
11/3/2003 3:45,20.7,0,60.9,0,20.2,0,19.6,0,14.3,0,0,2,13.8,0,79.8,0
11/3/2003 4:00,20.6,0,60.9,0,20.1,0,19.5,0,14.2,0,0,2,13.7,0,79.8,0
11/3/2003 4:15,20.5,0,60.9,0,20,0,19.5,0,14.1,0,0,2,13.8,0,79.3,0
11/3/2003 4:30,20.4,0,61,0,20,0,19.4,0,13.8,0,0,2,13.9,0,78.8,0
11/3/2003 4:45,20.3,0,61,0,19.9,0,19.3,0,13.7,0,0,2,14,0,78.3,0
11/3/2003 5:00,20.2,0,61.1,0,19.8,0,19.3,0,13.5,0,0,2,14.1,0,77.8,0
11/3/2003 5:15,20.1,0,61,0,19.8,0,19.2,0,13.5,0,0,2,13.9,0,77.8,0
11/3/2003 5:30,20.1,0,61.1,0,19.7,0,19.2,0,13.5,0,0,2,13.7,0,77.8,0
11/3/2003 5:45,20,0,61.3,0,19.7,0,19.1,0,13.5,0,0,2,13.6,0,77.8,0
11/3/2003 6:00,19.8,0,61.5,0,19.8,0,19.1,0,13.4,0,0,2,13.4,0,77.8,0
11/3/2003 6:15,19.7,0,62.4,0,19.8,0,19,0,13.4,0,0,2,13.6,0,77.3,0
11/3/2003 6:30,19.6,0,62.1,0,19.4,0,19,0,13.4,0,0,2,13.7,0,76.8,0
11/3/2003 6:45,19.7,0,62.6,0,19.1,0,18.9,0,13.5,0,0,2,13.9,0,76.3,0
11/3/2003 7:00,19.9,0,61.9,0,19,0,18.8,0,13.6,0,0,2,14.1,0,75.8,0
11/3/2003 7:15,19.9,0,62.7,0,19,0,18.8,0,13.7,0,0,2,14.2,0,75.3,0
11/3/2003 7:30,19.9,0,62.6,0,19,0,18.7,0,13.8,0,0,2,14.4,0,74.8,0
11/3/2003 7:45,19.9,0,63.2,0,19,0,18.7,0,13.9,0,0,2,14.5,0,74.3,0
11/3/2003 8:00,19.8,0,63.3,0,19,0,18.7,0,14,0,0,2,14.7,0,73.8,0
11/3/2003 8:15,19.8,0,63.1,0,18.9,0,18.6,0,14.2,0,0,2,14.8,0,73.8,0
11/3/2003 8:30,19.7,0,63.2,0,18.9,0,18.6,0,14.3,0,0,2,15,0,73.8,0
11/3/2003 8:45,19.7,0,63.7,0,18.9,0,18.6,0,14.4,0,0,2,15.1,0,73.8,0
11/3/2003 9:00,19.6,0,63.8,0,18.8,0,18.5,0,14.5,0,0,2,15.3,0,73.8,0
11/3/2003 9:15,19.5,0,63.7,0,18.8,0,18.5,0,14.7,0,0,2,15.3,0,74.3,0
11/3/2003 9:30,19.5,0,63.8,0,18.8,0,18.5,0,14.8,0,0,2,15.4,0,74.8,0
11/3/2003 9:45,19.5,0,63.8,0,18.8,0,18.5,0,15,0,0,2,15.4,0,75.3,0
11/3/2003 10:00,19.5,0,63.8,0,18.8,0,18.5,0,15.3,0,0,2,15.5,0,75.8,0
11/3/2003 10:15,19.5,0,63.8,0,18.8,0,18.5,0,15.7,0,0,2,15.9,0,74.1,0
11/3/2003 10:30,19.6,0,64.2,0,18.9,0,18.5,0,16.1,0,0,2,16.4,0,72.3,0
11/3/2003 10:45,19.7,0,64.8,0,19.1,0,18.6,0,16.7,0,0,2,16.8,0,70.6,0
11/3/2003 11:00,19.9,0,64.7,0,19.2,0,18.6,0,17.2,0,0,2,17.3,0,68.8,0
11/3/2003 11:15,20.1,0,64.2,0,19.5,0,18.8,0,17.6,0,0,2,17.8,0,67.3,0
11/3/2003 11:30,20.3,0,63.9,0,19.7,0,18.9,0,18.1,0,0,2,18.4,0,65.8,0
11/3/2003 11:45,20.6,0,63.7,0,19.9,0,19.1,0,18.6,0,0,2,18.9,0,64.3,0
11/3/2003 12:00,21,0,63.9,0,20,0,19.3,0,19,0,0,2,19.5,0,62.8,0
11/3/2003 12:15,21.1,0,63.6,0,20.1,0,19.4,0,19.3,0,0,2,19.5,0,62.5,0
11/3/2003 12:30,21.1,0,63.5,0,20.2,0,19.5,0,19.6,0,0,2,19.5,0,62.3,0
11/3/2003 12:45,21.1,0,64.1,0,20.2,0,19.5,0,19.8,0,0,2,19.5,0,62,0
11/3/2003 13:00,21.1,0,63.9,0,20.1,0,19.6,0,19.9,0,0,2,19.5,0,61.8,0
11/3/2003 13:15,21.1,0,63.9,0,20.1,0,19.6,0,20.1,0,0,2,19.6,0,62.3,0
11/3/2003 13:30,21.2,0,63.2,0,20.1,0,19.7,0,20.2,0,0,2,19.7,0,62.8,0
11/3/2003 13:45,21.2,0,63.5,0,20.1,0,19.7,0,20.4,0,0,2,19.8,0,63.3,0
11/3/2003 14:00,21.2,0,63.5,0,20.1,0,19.7,0,20.5,0,0,2,19.9,0,63.8,0
11/3/2003 14:15,21.2,0,63.4,0,20.1,0,19.8,0,20.5,0,0,2,19.6,0,65.6,0
11/3/2003 14:30,21.3,0,65.9,0,20.1,0,19.8,0,20.4,0,0,2,19.4,0,67.3,0
11/3/2003 14:45,21.2,0,65.1,0,20.1,0,19.8,0,20.2,0,0,2,19.1,0,69.1,0
11/3/2003 15:00,21.2,0,65.1,0,20.1,0,19.8,0,20,0,0,2,18.9,0,70.8,0
11/3/2003 15:15,21.2,0,65.4,0,20,0,19.7,0,19.9,0,0,2,18.7,0,73.3,0
11/3/2003 15:30,21.2,0,65.4,0,20,0,19.7,0,19.8,0,0,2,18.4,0,75.8,0
11/3/2003 15:45,21.2,0,66.5,0,20,0,19.7,0,19.7,0,0,2,18.2,0,78.3,0
11/3/2003 16:00,21.2,0,66.7,0,20,0,19.7,0,19.6,0,0,2,18,0,80.8,0
11/3/2003 16:15,21.2,0,66.9,0,20,0,19.7,0,19.5,0,0,2,17.9,0,81.1,0
11/3/2003 16:30,21.2,0,66.5,0,19.9,0,19.7,0,19.3,0,0,2,17.7,0,81.3,0
11/3/2003 16:45,21.3,0,66.5,0,19.9,0,19.7,0,19.2,0,0,2,17.6,0,81.6,0
11/3/2003 17:00,21.4,0,67.2,0,19.9,0,19.6,0,19,0,0,2,17.5,0,81.8,0
11/3/2003 17:15,21.5,0,69.3,0,19.8,0,19.6,0,18.9,0,0,2,17.4,0,82.3,0
11/3/2003 17:30,21.7,0,67.9,0,19.8,0,19.6,0,18.8,0,0,2,17.3,0,82.8,0
11/3/2003 17:45,21.6,0,66.3,0,19.8,0,19.6,0,18.7,0,0,2,17.3,0,83.3,0
11/3/2003 18:00,21.7,0,65.1,0,19.8,0,19.5,0,18.5,0,0,2,17.2,0,83.8,0
11/3/2003 18:15,21.8,0,68,0,19.8,0,19.5,0,18.4,0,0,2,17.2,0,84.3,0
11/3/2003 18:30,22,0,67.2,0,19.8,0,19.5,0,18.3,0,0,2,17.1,0,84.8,0
11/3/2003 18:45,22.1,0,67.1,0,19.7,0,19.5,0,18.2,0,0,2,17.1,0,85.3,0
11/3/2003 19:00,22.2,0,66.7,0,19.7,0,19.5,0,18.2,0,0,2,17.1,0,85.8,0
11/3/2003 19:15,22.3,0,68.5,0,19.7,0,19.4,0,18.1,0,0,2,17,0,86.1,0
11/3/2003 19:30,22.2,0,67.8,0,19.7,0,19.4,0,18.1,0,0,2,17,0,86.3,0
11/3/2003 19:45,22.2,0,67.7,0,19.6,0,19.4,0,18,0,0,2,16.9,0,86.6,0
11/3/2003 20:00,22.2,0,69.4,0,19.6,0,19.4,0,17.9,0,0,2,16.9,0,86.8,0
11/3/2003 20:15,22.2,0,68.6,0,19.6,0,19.4,0,17.9,0,0,2,16.9,0,86.6,0
11/3/2003 20:30,22.2,0,68.4,0,19.6,0,19.3,0,17.8,0,0,2,16.9,0,86.3,0
11/3/2003 20:45,22.2,0,67.7,0,19.6,0,19.3,0,17.6,0,0,2,17,0,86.1,0
11/3/2003 21:00,22.2,0,68,0,19.5,0,19.3,0,17.7,0,0,2,17,0,85.8,0
11/3/2003 21:15,22.1,0,68.1,0,19.5,0,19.3,0,17.6,0,0,2,16.9,0,86.8,0
11/3/2003 21:30,22,0,66.6,0,19.6,0,19.3,0,17.5,0,0,2,16.8,0,87.8,0
11/3/2003 21:45,22,0,66.8,0,19.6,0,19.3,0,17.5,0,0,2,16.7,0,88.8,0
11/3/2003 22:00,22,0,67,0,19.6,0,19.3,0,17.5,0,0,2,16.6,0,89.8,0
11/3/2003 22:15,22.1,0,67,0,19.6,0,19.3,0,17.4,0,0,2,16.7,0,88.8,0
11/3/2003 22:30,22,0,67.3,0,19.7,0,19.3,0,17.4,0,0,2,16.7,0,87.8,0
11/3/2003 22:45,22,0,66.7,0,19.8,0,19.3,0,17.3,0,0,2,16.8,0,86.8,0
11/3/2003 23:00,21.8,0,66.3,0,19.9,0,19.3,0,17.3,0,0,2,16.9,0,85.8,0
11/3/2003 23:15,21.7,0,66.3,0,20,0,19.3,0,17.3,0,0,2,16.9,0,85.6,0
11/3/2003 23:30,21.6,0,66.3,0,20,0,19.3,0,17.2,0,0,2,16.8,0,85.3,0
11/3/2003 23:45,21.5,0,66.5,0,19.9,0,19.3,0,17.2,0,0,2,16.8,0,85.1,0
11/4/2003 0:00,21.4,0,66.5,0,19.9,0,19.3,0,17.2,0,0,2,16.8,0,84.8,0
11/4/2003 0:15,21.3,0,66.4,0,19.9,0,19.3,0,17.1,0,0,2,16.7,0,84.8,0
11/4/2003 0:30,21.2,0,66.4,0,19.8,0,19.2,0,17.1,0,0,2,16.6,0,84.8,0
11/4/2003 0:45,21.1,0,66.4,0,19.8,0,19.2,0,17.1,0,0,2,16.6,0,84.8,0
11/4/2003 1:00,21,0,66.3,0,19.8,0,19.2,0,17.1,0,0,2,16.5,0,84.8,0
11/4/2003 1:15,21,0,66.5,0,19.8,0,19.2,0,17.2,0,0,2,16.6,0,83.6,0
11/4/2003 1:30,20.9,0,66.4,0,19.8,0,19.2,0,17.2,0,0,2,16.7,0,82.3,0
11/4/2003 1:45,20.8,0,66.5,0,19.8,0,19.2,0,17.3,0,0,2,16.8,0,81.1,0
11/4/2003 2:00,20.8,0,66.4,0,19.8,0,19.2,0,17.3,0,0,2,16.9,0,79.8,0
11/4/2003 2:15,20.7,0,66.4,0,19.8,0,19.2,0,17.2,0,0,2,16.7,0,80.8,0
11/4/2003 2:30,20.7,0,66.3,0,19.8,0,19.2,0,17.2,0,0,2,16.4,0,81.8,0
11/4/2003 2:45,20.6,0,66.3,0,19.8,0,19.1,0,17.1,0,0,2,16.2,0,82.8,0
11/4/2003 3:00,20.6,0,66.2,0,19.8,0,19.1,0,17.1,0,0,2,16,0,83.8,0
11/4/2003 3:15,20.5,0,66.4,0,19.8,0,19.1,0,17.2,0,0,2,16.3,0,80.8,0
11/4/2003 3:30,20.5,0,66.4,0,19.8,0,19.1,0,17.1,0,0,2,16.6,0,77.8,0
11/4/2003 3:45,20.4,0,66.3,0,19.8,0,19.1,0,17,0,0,2,17,0,74.8,0
11/4/2003 4:00,20.4,0,66.3,0,19.8,0,19.1,0,17,0,0,2,17.3,0,71.8,0
11/4/2003 4:15,20.3,0,66.3,0,19.8,0,19.1,0,17,0,0,2,17.3,0,70.3,0
11/4/2003 4:30,20.3,0,66.2,0,19.7,0,19.1,0,16.9,0,0,2,17.3,0,68.8,0
11/4/2003 4:45,20.2,0,66.2,0,19.7,0,19.1,0,16.7,0,0,2,17.4,0,67.3,0
11/4/2003 5:00,20.2,0,66.1,0,19.7,0,19,0,16.6,0,0,2,17.4,0,65.8,0
11/4/2003 5:15,20.1,0,66.2,0,19.7,0,19,0,16.4,0,0,2,17.1,0,64.6,0
11/4/2003 5:30,20.1,0,66.3,0,19.7,0,19,0,16.3,0,0,2,16.7,0,63.3,0
11/4/2003 5:45,20,0,66.2,0,19.6,0,19,0,16.3,0,0,2,16.4,0,62.1,0
11/4/2003 6:00,20,0,66.1,0,19.6,0,18.9,0,16.3,0,0,2,16.1,0,60.8,0
11/4/2003 6:15,19.9,0,64.7,0,19.7,0,18.9,0,16.2,0,0,2,15.9,0,60.5,0
11/4/2003 6:30,19.7,0,59.9,0,19.7,0,18.9,0,16.1,0,0,2,15.8,0,60.3,0
11/4/2003 6:45,19.7,0,58.3,0,19.6,0,18.8,0,16.1,0,0,2,15.6,0,60,0
11/4/2003 7:00,19.9,0,61.3,0,19.4,0,18.8,0,16.1,0,0,2,15.5,0,59.8,0
11/4/2003 7:15,20.1,0,61.4,0,19.3,0,18.7,0,16,0,0,2,15.6,0,59.5,0
11/4/2003 7:30,20.2,0,61,0,19.2,0,18.7,0,16,0,0,2,15.7,0,59.3,0
11/4/2003 7:45,20.2,0,61.1,0,19.1,0,18.7,0,16,0,0,2,15.8,0,59,0
11/4/2003 8:00,20.2,0,62.5,0,18.9,0,18.6,0,16.1,0,0,2,15.9,0,58.8,0
11/4/2003 8:15,20.4,0,62.4,0,18.8,0,18.6,0,16.3,0,0,2,16.1,0,57.5,0
11/4/2003 8:30,20.6,0,62.5,0,19,0,18.7,0,16.7,0,0,2,16.4,0,56.3,0
11/4/2003 8:45,20.3,0,56.2,0,19.3,0,18.9,0,17.2,0,0,2,16.6,0,55,0
11/4/2003 9:00,19.5,0,52.8,0,19.4,0,19.1,0,17.5,0,0,2,16.9,0,53.8,0
11/4/2003 9:15,19.5,0,53.3,0,19.3,0,18.9,0,17.5,0,0,2,16.8,0,52.8,0
11/4/2003 9:30,19.6,0,55,0,19.2,0,18.8,0,17.5,0,0,2,16.8,0,51.8,0
11/4/2003 9:45,19.6,0,55.9,0,19.1,0,18.7,0,17.4,0,0,2,16.7,0,50.8,0
11/4/2003 10:00,19.6,0,55.3,0,19.1,0,18.6,0,17.4,0,0,2,16.7,0,49.8,0
11/4/2003 10:15,19.6,0,56.5,0,19.1,0,18.6,0,17.5,0,0,2,17,0,48.3,0
11/4/2003 10:30,19.7,0,56.1,0,19.1,0,18.6,0,17.6,0,0,2,17.4,0,46.8,0
11/4/2003 10:45,19.8,0,55.5,0,19.2,0,18.7,0,17.7,0,0,2,17.7,0,45.3,0
11/4/2003 11:00,19.9,0,55.3,0,19.4,0,18.8,0,17.9,0,0,2,18.1,0,43.8,0
11/4/2003 11:15,20,0,53.9,0,19.5,0,19,0,18.1,0,0,2,18.4,0,42.5,0
11/4/2003 11:30,20.2,0,52.8,0,19.8,0,19.2,0,18.4,0,0,2,18.6,0,41.3,0
11/4/2003 11:45,20.6,0,53.8,0,20,0,19.4,0,18.6,0,0,2,18.9,0,40,0
11/4/2003 12:00,20.9,0,54.8,0,20.2,0,19.6,0,18.9,0,0,2,19.2,0,38.8,0
11/4/2003 12:15,21.1,0,55.9,0,20.5,0,19.8,0,19.1,0,0,2,19.3,0,36.8,0
11/4/2003 12:30,21.2,0,56.1,0,20.6,0,20,0,19.2,0,0,2,19.3,0,34.8,0
11/4/2003 12:45,21.3,0,56.2,0,20.8,0,20.2,0,19.2,0,0,2,19.4,0,32.8,0
11/4/2003 13:00,21.3,0,56.4,0,20.8,0,20.3,0,19.2,0,0,2,19.5,0,30.8,0
11/4/2003 13:15,21.4,0,56.5,0,20.8,0,20.4,0,19.2,0,0,2,19.4,0,30.8,0
11/4/2003 13:30,21.4,0,56.5,0,20.8,0,20.4,0,19.2,0,0,2,19.4,0,30.8,0
11/4/2003 13:45,21.4,0,54.7,0,20.8,0,20.4,0,19.3,0,0,2,19.3,0,30.8,0
11/4/2003 14:00,21.4,0,55.3,0,20.7,0,20.4,0,19.3,0,0,2,19.3,0,30.8,0
11/4/2003 14:15,21.5,0,55.6,0,20.6,0,20.3,0,19.3,0,0,2,19.2,0,30,0
11/4/2003 14:30,21.5,0,56,0,20.6,0,20.2,0,19.2,0,0,2,19.1,0,29.3,0
11/4/2003 14:45,21.5,0,55.7,0,20.6,0,20.2,0,19.1,0,0,2,19,0,28.5,0